This is the latest recevied weather packets stored in our database for station/object LU5DTF-WX. If no packets are shown the sender has not sent any weather packets the latest 10 day(s).
| Time | Temp. | Humidity | Pressure | Rain* | Wind** | Luminosity | Snow |
|---|---|---|---|---|---|---|---|
| 1787923503 | 14.44° C | 65% | 1010.2 hPa | 0 mm | - | - | - |
| 1787923203 | 13.33° C | 67% | 1010.1 hPa | 0 mm | - | - | - |
| 1787922903 | 13.33° C | 71% | 1010.1 hPa | 0 mm | - | - | - |
| 1787922603 | 12.78° C | 70% | 1010 hPa | 0 mm | - | - | - |
| 1787922303 | 13.33° C | 68% | 1009.8 hPa | 0 mm | - | - | - |
| 1787922003 | 13.33° C | 69% | 1009.8 hPa | 0 mm | - | - | - |
| 1787921703 | 13.33° C | 68% | 1009.6 hPa | 0 mm | - | - | - |
| 1787921403 | 13.33° C | 67% | 1009.6 hPa | 0 mm | - | - | - |
| 1787921103 | 13.89° C | 67% | 1009.6 hPa | 0 mm | - | - | - |
| 1787920803 | 13.33° C | 68% | 1009.5 hPa | 0 mm | - | - | - |
| 1787920503 | 13.33° C | 71% | 1009.4 hPa | 0 mm | - | - | - |
| 1787920203 | 12.78° C | 69% | 1009.3 hPa | 0 mm | - | - | - |
| 1787919903 | 12.78° C | 69% | 1009.3 hPa | 0 mm | - | - | - |
| 1787919603 | 12.78° C | 70% | 1009.3 hPa | 0 mm | - | - | - |
| 1787919303 | 12.22° C | 70% | 1009.1 hPa | 0 mm | - | - | - |
| 1787919003 | 12.22° C | 71% | 1009.1 hPa | 0 mm | - | - | - |
| 1787918703 | 12.22° C | 72% | 1009 hPa | 0 mm | - | - | - |
| 1787918403 | 12.22° C | 72% | 1009 hPa | 0 mm | - | - | - |
| 1787918103 | 11.67° C | 71% | 1008.9 hPa | 0 mm | - | - | - |
| 1787917803 | 11.67° C | 69% | 1008.8 hPa | 0 mm | - | - | - |
| 1787917503 | 11.67° C | 70% | 1008.8 hPa | 0 mm | - | - | - |
| 1787917203 | 11.67° C | 70% | 1008.6 hPa | 0 mm | - | - | - |
| 1787916903 | 11.11° C | 68% | 1008.6 hPa | 0 mm | - | - | - |
| 1787916603 | 11.11° C | 68% | 1008.7 hPa | 0 mm | - | - | - |
| 1787916303 | 11.11° C | 68% | 1008.5 hPa | 0 mm | - | - | - |
* Rain latest hour (hover to see other rain measurements)
** Current wind speed in m/s (hover to see current wind gust speed)